Wind_Speed
32 44 63 68 64 62 46 42 42 33 37 37 38 38 39 39 38 38 38 39 39 40 42 42 42 43 44 45 46 46 47 48 51 52 53 52 53 54 55 55 54 53 54 55 55 54 55 48 47 45 42 35 31 32
31 39 53 64 64 66 51 36 40 37 30 32 31 31 33 35 36 35 35 36 37 39 40 41 42 43 44 46 48 49 50 50 52 53 54 55 56 58 55 57 55 55 55 56 59 59 55 55 49 47 46 43 37 30
28 35 45 59 65 65 55 39 41 39 37 32 33 27 30 32 31 32 33 35 37 38 39 40 41 43 46 48 49 47 50 51 52 52 53 54 57 61 59 59 55 54 55 58 60 60 58 59 61 55 52 48 47 36
22 32 42 55 66 69 63 40 41 44 46 37 34 32 31 31 30 30 28 28 30 33 36 39 42 44 46 47 45 40 41 42 42 43 46 49 52 56 58 59 60 52 51 54 60 60 61 63 64 60 55 55 52 48
19 26 39 51 65 67 66 44 47 43 38 32 31 31 29 27 24 22 22 25 28 31 33 35 38 41 40 42 43 42 41 42 43 43 43 43 46 51 52 56 61 51 46 51 54 59 63 61 64 65 58 56 52 52
19 23 34 46 60 65 65 38 44 39 35 33 33 29 26 25 23 21 21 22 23 24 24 25 29 29 26 27 30 35 40 43 45 46 47 50 52 55 57 57 50 47 49 48 52 55 59 60 61 63 62 61 55 49
19 24 31 44 55 63 55 44 38 53 38 36 35 30 26 26 23 20 19 18 20 19 19 20 22 25 27 28 28 30 34 35 39 42 42 44 47 54 54 47 38 48 53 53 50 52 56 47 51 58 61 59 56 54
19 25 30 41 56 63 52 44 43 42 45 42 36 33 29 25 23 19 18 17 8 10 14 15 18 22 25 27 29 30 31 33 34 36 39 40 45 49 51 40 41 42 47 54 54 52 52 55 45 47 52 59 57 47
19 27 35 33 60 66 48 47 46 42 41 39 37 34 29 28 26 22 23 14 7 9 9 12 19 22 24 27 29 31 33 33 35 34 35 40 41 47 42 38 37 33 40 50 55 52 59 62 51 39 35 46 52 50
20 28 36 40 55 67 61 42 45 45 35 35 38 34 30 27 25 24 22 17 13 12 15 17 17 21 25 27 28 30 33 35 34 31 34 38 37 32 30 30 26 29 38 44 48 53 60 67 53 41 43 42 42 53
22 30 36 40 55 65 46 47 39 36 34 31 34 29 30 27 27 27 20 14 13 16 20 19 20 21 24 27 28 29 30 32 31 27 28 25 20 20 23 23 21 24 33 36 38 48 51 44 59 51 37 36 34 46
26 31 38 43 55 59 48 42 41 39 37 32 28 32 30 26 25 23 18 15 18 22 21 23 25 22 24 26 28 29 28 28 26 20 14 7 8 12 16 20 22 23 29 31 34 42 46 40 44 53 46 44 48 41
32 34 40 49 59 50 47 44 44 40 38 32 32 31 27 25 22 15 11 17 22 23 26 29 30 27 25 26 30 31 32 30 23 19 19 16 9 9 8 10 15 21 25 26 25 38 43 40 40 46 49 44 46 47
40 47 48 47 48 41 42 41 43 38 36 35 28 25 26 20 16 13 17 21 24 25 28 33 33 31 27 26 28 32 31 29 22 19 26 23 14 15 18 16 18 23 23 23 24 33 37 42 38 40 41 46 48 50
45 40 37 34 40 38 38 36 35 36 31 27 26 24 16 11 12 17 21 25 25 27 31 33 31 27 26 31 26 25 31 29 20 22 26 31 25 12 26 26 16 9 19 22 22 24 29 39 38 46 40 44 41 38
39 38 41 38 36 38 39 38 33 32 30 28 25 17 11 10 16 21 23 22 24 29 30 28 25 22 24 11 8 11 25 24 20 23 26 28 32 30 20 15 35 17 11 16 22 23 24 33 41 33 42 43 45 48
41 42 45 44 42 41 39 36 34 34 32 27 21 14 11 15 21 22 21 24 27 29 26 25 19 18 7 10 3 3 5 19 24 23 26 30 29 28 29 9 21 26 24 24 24 29 28 29 28 29 30 40 39 40
44 43 43 45 47 46 42 38 34 34 31 24 17 16 18 23 22 22 21 22 28 31 27 23 20 14 9 5 11 12 16 20 24 23 22 25 25 29 30 20 13 19 26 24 22 23 26 28 31 33 35 38 39 38
46 45 45 43 43 45 43 37 35 31 29 24 20 20 22 24 25 22 21 24 27 27 26 25 25 22 17 21 23 19 23 24 26 27 25 23 25 29 35 28 18 10 17 25 24 22 23 28 31 31 34 38 38 37
47 46 47 44 44 44 46 46 39 35 29 30 27 24 26 25 24 23 26 29 29 30 27 25 22 21 25 31 31 30 30 30 29 31 31 28 28 33 35 35 29 21 16 26 27 27 26 25 28 30 31 30 31 35
47 49 48 45 41 40 38 38 39 38 36 31 26 26 26 25 25 27 29 32 32 31 28 22 20 20 25 31 31 29 29 29 28 30 34 36 35 33 30 33 37 31 29 25 24 28 25 21 18 21 30 32 30 32
49 46 45 44 39 38 37 35 37 36 30 27 27 29 29 26 26 30 32 33 34 35 33 25 21 24 28 26 26 25 16 18 19 22 26 31 31 33 32 27 30 35 35 33 32 28 29 26 21 19 20 18 22 30
42 43 37 37 40 38 38 38 38 34 31 31 32 31 28 27 30 33 32 32 34 39 34 28 25 25 28 28 23 14 15 21 23 23 22 24 24 25 29 32 31 32 36 39 36 32 34 30 26 26 25 26 23 19
42 38 38 35 37 37 38 38 36 35 34 32 30 29 29 32 34 32 31 29 35 36 31 29 27 27 24 23 19 18 18 24 24 21 22 23 20 24 29 30 32 31 31 34 35 30 30 32 33 34 33 31 32 31
45 41 41 39 35 34 33 32 33 32 30 30 31 33 33 35 34 33 28 26 33 34 29 29 29 26 21 20 20 18 19 21 21 19 22 26 24 21 27 29 30 31 27 28 31 33 36 39 40 40 37 38 36 36
46 42 43 41 36 32 31 31 31 30 32 35 35 34 34 37 34 30 24 28 32 33 27 25 20 18 19 20 15 15 17 22 27 26 30 26 21 15 19 22 21 19 25 28 30 32 31 34 37 38 37 38 39 39
49 45 36 32 29 27 27 27 29 31 32 32 31 32 34 35 30 23 27 30 31 32 26 20 17 18 17 13 10 14 21 26 30 29 25 20 22 16 17 20 24 23 19 16 20 26 31 34 34 34 34 36 39 40
47 38 32 29 28 28 28 30 30 29 29 31 32 34 35 30 25 27 27 29 34 34 22 19 23 20 15 10 15 19 22 26 31 25 13 16 20 24 26 24 23 18 17 21 27 30 29 30 32 32 33 34 36 39
37 36 32 30 28 27 28 30 31 32 33 34 34 33 29 27 26 26 29 33 34 31 17 21 24 19 12 16 20 25 29 30 20 8 14 17 19 19 19 19 17 20 24 24 28 27 24 24 24 21 22 25 26 27
36 37 37 35 33 32 33 33 34 35 34 32 31 28 26 26 28 28 30 31 28 24 22 22 23 19 17 20 25 28 30 16 10 17 19 20 19 18 18 18 14 16 16 16 17 20 20 18 16 18 25 26 26 28
36 37 36 33 30 29 31 33 30 29 28 29 28 24 22 23 26 27 22 21 21 13 9 9 14 21 23 26 24 27 21 14 19 18 17 17 16 16 8 17 12 10 9 10 12 10 12 17 17 18 22 28 32 32
33 31 29 27 28 31 26 20 21 23 23 20 19 17 17 13 13 17 15 10 7 10 15 19 23 26 26 23 21 13 23 24 20 20 17 10 4 8 15 9 5 3 3 2 3 3 8 13 20 22 23 24 25 25
29 28 27 29 27 21 17 16 15 12 11 8 6 7 6 4 4 7 10 13 16 20 21 19 17 17 12 15 27 29 28 25 20 13 7 3 8 17 11 6 5 4 4 4 7 11 14 15 16 16 15 16 17 18
Wind_Direction
213 207 202 198 202 198 195 193 207 210 218 225 218 220 223 225 228 231 234 235 236 237 238 239 243 247 250 253 254 254 253 253 254 255 254 252 249 248 249 246 245 243 239 238 242 244 246 248 251 254 256 257 252 249
211 209 203 203 198 199 196 197 203 209 212 211 209 214 219 223 227 229 230 234 237 238 240 244 248 250 252 253 254 255 255 254 253 252 252 253 253 252 249 249 248 244 241 237 239 244 243 246 247 250 252 253 250 244
211 207 204 201 195 197 192 193 197 204 204 209 209 229 225 224 224 227 229 234 239 243 247 251 253 254 255 255 256 255 254 255 254 253 252 250 250 251 251 249 246 246 243 241 238 240 242 245 243 242 246 252 256 246
214 205 200 201 192 195 198 194 194 196 206 212 225 225 216 217 218 224 231 238 245 249 252 253 255 255 255 255 256 255 255 254 253 252 251 251 248 250 251 252 251 247 245 243 239 237 237 239 241 242 244 249 252 255
213 206 199 196 196 192 196 195 192 199 203 206 206 203 209 210 215 220 232 243 248 251 253 255 256 256 256 255 254 253 251 250 252 253 253 251 250 251 251 251 250 249 245 242 241 239 236 236 240 240 239 243 246 250
209 205 197 194 195 196 197 190 189 188 194 198 197 197 203 209 212 227 241 247 250 249 248 251 255 254 251 249 249 249 250 253 255 255 254 253 254 254 252 251 250 249 246 243 239 237 238 238 238 240 239 240 241 245
206 200 194 190 189 190 194 190 191 189 196 197 196 198 207 208 217 231 235 237 243 247 246 249 255 255 256 251 251 253 255 256 257 258 258 256 255 257 255 255 253 245 241 242 240 236 233 236 240 239 239 239 239 239
198 195 192 190 186 183 181 179 174 183 196 201 200 202 213 214 219 221 217 226 236 249 256 260 259 259 259 262 265 264 263 262 263 263 262 262 259 261 260 258 253 244 238 237 241 240 224 221 219 236 241 237 237 236
199 189 183 180 186 182 176 180 185 188 197 200 204 209 213 215 219 217 218 222 247 271 263 269 267 268 270 269 268 269 269 270 266 267 270 264 262 261 264 257 255 250 238 228 233 235 218 219 210 219 201 225 226 227
193 190 186 185 182 186 188 185 190 197 206 208 206 202 216 212 218 218 226 241 255 264 279 288 293 293 283 280 278 273 269 266 267 265 264 268 270 271 271 260 252 245 234 233 238 233 228 222 217 212 209 217 233 229
189 183 185 183 180 180 185 190 190 193 200 204 197 211 209 211 219 223 230 241 258 276 278 289 299 288 278 275 274 274 275 271 269 267 270 279 277 265 255 245 239 238 236 245 248 238 233 230 230 218 212 203 229 231
177 179 180 176 178 175 175 184 198 200 208 204 202 208 208 215 221 225 240 255 271 270 289 297 297 295 282 274 270 268 270 269 266 265 256 276 246 256 239 233 235 237 237 249 252 242 234 230 238 224 222 212 220 218
171 175 172 169 170 177 185 186 188 189 198 203 211 211 210 215 220 233 259 262 266 284 295 300 301 300 293 274 260 258 257 264 265 253 227 231 240 258 209 213 231 246 249 249 249 245 239 230 234 240 232 225 223 224
156 149 152 163 179 185 177 178 187 194 201 203 203 207 210 216 235 245 257 272 279 292 301 302 305 303 299 287 267 251 245 250 254 243 229 230 210 216 223 226 223 228 231 230 240 239 244 234 230 231 241 240 232 229
154 163 174 181 169 170 170 174 185 196 196 202 204 203 212 225 235 250 265 276 292 302 307 304 302 303 310 305 290 250 232 232 242 235 232 230 236 207 218 220 236 211 208 226 223 225 229 230 226 229 232 239 227 229
164 166 169 168 175 177 179 185 190 192 195 197 202 209 216 230 252 261 270 289 303 309 308 301 294 304 313 315 291 242 228 225 238 239 241 245 250 244 252 276 245 245 248 249 217 221 212 220 226 223 226 228 233 239
171 169 170 173 177 181 186 191 196 198 200 202 209 223 240 254 258 265 284 297 307 313 307 299 283 304 270 314 340 320 232 234 243 251 256 254 257 261 262 244 233 244 243 254 224 220 218 221 230 231 235 229 225 229
177 175 176 178 184 187 194 198 203 209 208 210 222 233 240 248 259 271 289 300 308 311 306 304 278 267 234 260 280 261 252 230 232 237 251 258 256 252 251 257 212 224 230 233 239 235 230 220 221 229 226 229 227 229
175 178 180 179 186 193 200 211 213 212 214 224 235 234 237 251 266 279 288 295 298 305 303 302 306 276 255 260 266 266 264 257 238 240 246 253 258 257 253 249 250 252 221 227 240 239 238 232 224 225 225 225 226 231
178 182 182 186 192 199 206 212 219 225 220 232 236 232 242 257 270 279 285 290 294 302 308 299 313 291 270 264 265 264 265 268 260 246 243 246 252 251 256 263 260 259 227 223 229 235 238 242 236 235 233 231 230 233
187 184 187 190 194 197 204 209 213 215 214 218 223 234 247 256 269 274 281 287 295 305 304 294 286 287 266 263 269 272 277 274 269 266 252 244 247 251 257 260 256 257 256 255 242 233 232 234 246 248 243 239 234 232
188 186 189 190 200 207 207 207 211 211 212 217 224 235 245 257 268 271 279 289 296 298 294 283 278 280 285 278 273 272 272 273 275 278 267 254 247 248 248 252 254 250 247 253 259 254 246 235 233 243 246 244 243 242
187 190 189 195 200 206 209 211 211 209 216 224 234 243 251 262 265 274 280 288 289 286 288 281 280 285 281 277 281 274 273 278 280 276 274 264 244 236 235 241 247 242 238 243 246 251 250 246 243 240 248 240 232 232
182 188 192 195 201 207 208 210 214 220 224 231 240 249 257 261 269 274 279 287 283 284 284 284 293 292 279 273 276 267 270 275 287 303 301 289 265 244 231 227 234 231 226 232 241 248 250 248 243 250 247 242 239 235
189 193 202 204 204 208 211 215 222 225 228 237 248 255 256 263 268 274 282 285 279 278 282 291 297 293 281 269 270 271 273 282 289 299 303 285 274 247 238 238 237 231 231 238 244 249 255 257 256 254 241 231 227 229
196 204 208 207 210 212 214 218 224 232 238 244 249 253 260 264 270 278 286 275 276 280 288 294 300 288 270 272 283 281 278 289 293 301 300 280 259 240 231 237 226 240 246 249 252 254 256 253 245 244 245 244 234 224
202 205 209 215 214 219 222 222 221 227 236 247 255 260 265 270 271 280 279 275 278 281 287 285 271 266 271 281 288 290 289 290 293 298 291 261 240 231 223 237 250 250 261 264 259 264 259 256 257 257 252 247 244 239
207 207 209 211 216 220 225 231 237 243 248 255 262 266 268 274 278 278 276 275 274 278 286 270 265 272 272 276 287 293 294 303 308 300 258 231 228 234 239 236 266 276 275 274 275 269 268 265 261 255 254 247 237 231
208 209 215 225 226 226 231 238 244 251 259 263 265 269 274 279 281 273 267 268 274 284 283 266 269 270 268 290 298 304 313 313 303 246 199 207 212 221 242 265 264 269 282 282 271 270 266 261 258 245 225 221 217 207
218 221 225 230 234 239 244 252 257 258 261 264 267 271 274 273 269 267 269 275 279 292 289 272 266 268 272 293 310 306 303 301 192 176 190 210 223 238 253 269 300 318 301 286 275 268 258 246 218 202 193 190 187 192
224 228 233 239 245 247 246 244 248 255 260 264 269 271 269 268 271 273 278 282 287 272 265 277 284 274 285 298 296 293 284 172 158 167 191 212 226 243 285 347 328 312 301 290 282 250 217 199 191 189 194 197 199 198
231 234 236 237 239 240 240 248 253 254 255 257 260 264 267 267 270 276 276 273 284 303 300 295 291 288 288 282 278 199 152 144 157 180 186 189 207 9 13 344 352 330 299 347 63 147 171 179 190 195 199 200 200 203
225 224 223 226 231 238 243 248 249 249 240 234 245 263 258 248 275 289 299 301 305 302 301 299 291 283 259 177 151 143 146 157 158 148 135 142 44 45 25 39 60 58 74 93 108 108 112 118 127 138 149 161 176 188
Height
5396 5406 5418 5432 5447 5461 5472 5482 5493 5501 5509 5515 5522 5529 5537 5544 5551 5558 5563 5569 5575 5581 5586 5591 5595 5599 5604 5608 5611 5614 5617 5620 5622 5624 5628 5633 5638 5642 5646 5653 5657 5662 5666 5673 5678 5682 5688 5697 5700 5704 5709 5711 5715 5718
5391 5399 5410 5423 5438 5451 5465 5475 5485 5494 5502 5509 5516 5523 5530 5537 5543 5549 5555 5560 5565 5571 5577 5580 5584 5588 5591 5595 5597 5600 5603 5604 5607 5610 5614 5617 5622 5625 5632 5636 5640 5647 5652 5658 5664 5670 5680 5682 5688 5690 5693 5698 5702 5707
5386 5393 5404 5416 5430 5444 5457 5469 5479 5489 5496 5504 5512 5518 5524 5531 5537 5543 5547 5552 5557 5561 5566 5569 5571 5575 5577 5579 5583 5586 5587 5590 5592 5596 5599 5602 5607 5610 5614 5620 5625 5631 5637 5643 5649 5658 5664 5668 5671 5677 5682 5687 5690 5696
5382 5388 5397 5408 5423 5437 5451 5463 5473 5482 5491 5500 5507 5513 5519 5526 5531 5537 5541 5545 5549 5553 5555 5557 5559 5562 5565 5567 5570 5573 5575 5578 5580 5583 5585 5589 5595 5596 5599 5604 5609 5621 5624 5628 5633 5644 5648 5650 5656 5665 5671 5674 5679 5683
5379 5384 5392 5403 5417 5430 5445 5459 5469 5478 5486 5494 5502 5509 5515 5522 5527 5532 5536 5539 5542 5546 5547 5547 5549 5552 5555 5558 5561 5564 5566 5567 5569 5572 5575 5579 5582 5584 5587 5589 5594 5605 5612 5613 5618 5624 5629 5638 5642 5649 5658 5662 5666 5670
5376 5381 5388 5398 5412 5426 5442 5455 5464 5472 5481 5490 5498 5505 5512 5518 5522 5527 5531 5534 5536 5538 5540 5542 5542 5545 5547 5549 5550 5551 5553 5556 5558 5560 5563 5567 5572 5570 5570 5573 5587 5593 5595 5599 5603 5606 5613 5620 5628 5633 5642 5649 5656 5659
5373 5378 5385 5394 5406 5423 5438 5451 5458 5469 5478 5486 5493 5501 5507 5513 5519 5524 5527 5529 5531 5534 5536 5537 5537 5539 5540 5542 5544 5544 5546 5548 5548 5549 5553 5556 5558 5551 5554 5563 5579 5576 5579 5580 5585 5591 5599 5607 5613 5618 5625 5633 5641 5648
5371 5376 5383 5392 5404 5421 5435 5447 5454 5464 5473 5480 5489 5496 5504 5510 5515 5519 5522 5525 5528 5530 5531 5532 5532 5533 5533 5533 5534 5535 5536 5536 5538 5538 5540 5541 5540 5537 5542 5557 5558 5560 5561 5565 5570 5574 5587 5593 5598 5604 5608 5618 5627 5636
5369 5374 5382 5393 5403 5418 5431 5443 5452 5460 5468 5477 5485 5493 5500 5506 5511 5515 5518 5522 5525 5527 5527 5526 5525 5526 5525 5525 5525 5525 5525 5526 5527 5529 5528 5525 5526 5525 5534 5536 5538 5542 5546 5551 5553 5562 5572 5577 5587 5592 5595 5604 5615 5625
5367 5373 5380 5388 5400 5416 5430 5441 5449 5457 5467 5476 5484 5490 5496 5502 5507 5512 5515 5518 5520 5521 5521 5520 5521 5519 5518 5517 5516 5516 5515 5514 5516 5519 5515 5514 5517 5521 5521 5523 5526 5531 5535 5540 5546 5553 5559 5567 5575 5582 5589 5595 5601 5612
5365 5371 5379 5388 5400 5416 5427 5436 5444 5456 5465 5474 5482 5488 5494 5498 5503 5507 5511 5514 5515 5516 5515 5515 5514 5512 5509 5508 5506 5506 5506 5506 5507 5511 5508 5509 5512 5511 5511 5513 5518 5522 5527 5531 5535 5543 5547 5555 5563 5570 5575 5583 5593 5599
5365 5371 5379 5388 5399 5416 5426 5434 5448 5458 5467 5475 5481 5485 5489 5494 5499 5504 5507 5509 5509 5509 5508 5507 5506 5504 5502 5500 5498 5498 5499 5499 5501 5504 5504 5504 5504 5504 5505 5508 5512 5515 5519 5523 5526 5532 5539 5547 5553 5560 5567 5575 5582 5588
5366 5373 5381 5391 5404 5416 5428 5437 5446 5456 5464 5470 5476 5480 5486 5491 5495 5500 5503 5503 5502 5502 5501 5498 5497 5495 5492 5490 5489 5489 5490 5493 5495 5497 5497 5497 5498 5500 5502 5504 5507 5509 5512 5515 5517 5523 5530 5538 5543 5549 5557 5563 5570 5577
5370 5377 5388 5401 5411 5419 5428 5437 5446 5454 5461 5466 5473 5478 5483 5488 5492 5496 5496 5496 5496 5495 5493 5489 5486 5484 5481 5479 5477 5478 5482 5485 5488 5489 5490 5491 5493 5496 5495 5496 5502 5502 5502 5505 5509 5516 5522 5529 5534 5541 5548 5555 5562 5568
5376 5384 5392 5401 5410 5420 5429 5438 5446 5453 5459 5465 5470 5476 5481 5486 5489 5490 5490 5489 5490 5487 5485 5481 5477 5476 5473 5469 5466 5467 5471 5476 5481 5483 5485 5486 5487 5490 5491 5491 5492 5496 5495 5496 5502 5508 5515 5521 5527 5533 5541 5548 5554 5560
5378 5386 5395 5402 5411 5421 5429 5437 5444 5451 5456 5463 5468 5474 5479 5481 5483 5484 5484 5485 5484 5481 5477 5474 5471 5471 5468 5462 5460 5461 5466 5472 5476 5477 5480 5482 5483 5484 5486 5486 5485 5489 5492 5495 5499 5501 5506 5512 5519 5525 5531 5538 5545 5551
5378 5388 5395 5404 5413 5421 5428 5436 5442 5447 5454 5460 5466 5471 5474 5476 5478 5479 5479 5478 5476 5474 5471 5469 5468 5468 5466 5463 5464 5465 5467 5470 5471 5472 5474 5475 5478 5480 5481 5483 5484 5486 5489 5492 5494 5496 5498 5504 5511 5517 5523 5529 5534 5541
5381 5388 5396 5402 5409 5417 5426 5432 5439 5445 5451 5459 5464 5468 5469 5471 5473 5473 5474 5473 5471 5468 5466 5465 5465 5465 5465 5464 5465 5465 5465 5464 5466 5468 5468 5470 5472 5475 5477 5479 5481 5483 5486 5488 5490 5492 5495 5499 5504 5511 5516 5522 5527 5532
5382 5389 5397 5405 5413 5420 5425 5431 5437 5443 5450 5456 5460 5463 5465 5465 5467 5469 5469 5468 5466 5464 5462 5460 5459 5461 5464 5462 5461 5462 5462 5462 5463 5464 5466 5467 5468 5470 5471 5474 5477 5479 5481 5483 5485 5487 5489 5493 5497 5502 5507 5512 5518 5523
5382 5391 5398 5404 5411 5416 5422 5429 5435 5440 5446 5453 5456 5458 5459 5461 5463 5464 5462 5461 5460 5459 5459 5457 5457 5457 5457 5456 5455 5457 5456 5457 5458 5459 5460 5461 5462 5463 5465 5467 5470 5472 5476 5479 5480 5482 5485 5487 5490 5494 5498 5503 5507 5513
5379 5385 5392 5400 5407 5414 5419 5425 5431 5437 5442 5447 5451 5453 5455 5457 5458 5457 5456 5454 5453 5454 5453 5451 5450 5448 5446 5447 5446 5446 5447 5448 5449 5450 5452 5454 5455 5456 5459 5461 5463 5465 5468 5472 5475 5477 5480 5483 5484 5487 5491 5495 5499 5504
5374 5384 5393 5399 5405 5410 5416 5422 5428 5433 5439 5443 5445 5447 5451 5453 5452 5451 5450 5449 5448 5447 5443 5444 5443 5441 5438 5438 5438 5438 5440 5440 5440 5440 5441 5444 5447 5450 5452 5454 5456 5459 5462 5465 5468 5471 5473 5476 5480 5482 5485 5488 5491 5495
5378 5384 5390 5395 5400 5406 5412 5418 5423 5429 5434 5438 5440 5443 5446 5446 5445 5444 5444 5445 5442 5436 5435 5436 5435 5435 5432 5432 5432 5433 5433 5432 5431 5432 5434 5436 5437 5439 5442 5445 5447 5451 5455 5458 5460 5463 5464 5467 5470 5473 5476 5480 5482 5485
5376 5382 5385 5390 5395 5402 5408 5414 5420 5425 5429 5433 5436 5437 5439 5438 5438 5437 5438 5439 5431 5428 5427 5427 5427 5427 5426 5427 5428 5426 5425 5423 5424 5427 5428 5426 5428 5430 5432 5436 5438 5440 5443 5447 5452 5454 5456 5458 5459 5461 5464 5466 5470 5475
5374 5377 5383 5387 5393 5400 5406 5412 5416 5421 5425 5428 5430 5430 5431 5430 5429 5430 5432 5430 5423 5421 5422 5422 5421 5420 5420 5421 5421 5421 5420 5420 5420 5422 5421 5418 5420 5423 5425 5427 5429 5432 5435 5439 5441 5443 5445 5445 5446 5447 5449 5453 5457 5461
5369 5373 5379 5385 5393 5399 5404 5409 5413 5417 5419 5421 5422 5424 5424 5422 5422 5423 5424 5418 5416 5415 5417 5416 5416 5416 5416 5416 5418 5417 5416 5414 5414 5416 5415 5410 5412 5415 5418 5420 5424 5426 5427 5430 5431 5431 5431 5432 5433 5434 5437 5440 5443 5447
5366 5372 5380 5387 5392 5397 5402 5405 5408 5411 5413 5415 5416 5417 5415 5413 5415 5418 5414 5412 5410 5409 5411 5412 5411 5411 5413 5414 5414 5413 5412 5410 5408 5407 5405 5405 5407 5412 5415 5417 5419 5420 5420 5421 5421 5421 5420 5420 5421 5422 5424 5428 5431 5435
5366 5375 5381 5386 5390 5394 5397 5400 5403 5405 5407 5408 5408 5407 5406 5408 5410 5408 5407 5405 5402 5402 5406 5407 5406 5407 5409 5409 5409 5408 5406 5403 5400 5397 5399 5402 5406 5409 5411 5413 5414 5414 5414 5413 5411 5408 5407 5407 5407 5408 5410 5413 5417 5422
5369 5375 5379 5383 5386 5390 5393 5396 5398 5399 5400 5400 5400 5400 5401 5402 5401 5399 5398 5396 5396 5397 5400 5401 5401 5401 5403 5403 5401 5399 5398 5395 5392 5393 5396 5401 5404 5408 5409 5410 5409 5408 5406 5402 5399 5397 5395 5395 5395 5397 5401 5405 5409 5415
5367 5371 5375 5379 5383 5386 5388 5390 5392 5392 5392 5392 5393 5394 5395 5394 5392 5391 5392 5392 5392 5393 5393 5393 5395 5395 5396 5394 5394 5393 5390 5387 5388 5393 5397 5401 5405 5406 5407 5405 5404 5400 5396 5393 5391 5389 5388 5389 5392 5395 5400 5405 5410 5416
5362 5367 5371 5375 5378 5380 5380 5381 5384 5386 5386 5386 5387 5387 5387 5387 5387 5387 5387 5388 5389 5388 5387 5387 5388 5388 5387 5386 5386 5386 5385 5386 5390 5395 5399 5402 5404 5404 5404 5400 5397 5394 5392 5389 5387 5385 5385 5387 5391 5394 5399 5405 5410 5415
5358 5363 5367 5370 5372 5372 5374 5378 5379 5380 5381 5382 5382 5382 5383 5384 5384 5384 5384 5384 5383 5382 5382 5381 5380 5379 5379 5379 5380 5380 5385 5389 5394 5398 5400 5402 5403 5402 5400 5398 5395 5394 5392 5391 5388 5387 5386 5388 5392 5396 5400 5404 5409 5413
5354 5358 5361 5363 5366 5370 5373 5374 5375 5376 5377 5378 5379 5380 5380 5380 5381 5381 5381 5380 5379 5377 5375 5373 5372 5371 5371 5373 5379 5384 5389 5393 5398 5400 5400 5402 5402 5400 5400 5397 5396 5396 5395 5395 5394 5393 5393 5393 5395 5397 5400 5404 5407 5411